Phnom Penh, Cambodia

4:24 PM +07 on May 24, 2018 (GMT +0700)
Pochentong International

Weather History for VDPP - September, 2012

Change the Weather History Date:

Tuesday, September 18, 2012

  Actual Average Record
Temperature  
Mean Temperature 83 °F -  
Max Temperature 89 °F 85 °F 93 °F (1999)
Min Temperature 77 °F 76 °F 73 °F (2015)
Cooling Degree Days 18    
Growing Degree Days 33 (Base 50)    
Moisture  
Dew Point 74 °F    
Average Humidity 76    
Maximum Humidity 84    
Minimum Humidity 59    
Precipitation  
Precipitation 0.00 in - - ()
Sea Level Pressure  
Sea Level Pressure 29.80 in    
Wind  
Wind Speed 5 mph ()    
Max Wind Speed 15 mph    
Max Gust Speed 25 mph    
Visibility 5.9 miles    
Events Rain    
Averages and records for this station are not official NWS values.
T = Trace of Precipitation, MM = Missing Value Source: Averaged Metar Reports

Daily Weather History Graph

Daily Weather History Graph

Search for Another Location

Airport or City:

Astronomy

Sep. 18, 2012 Rise Set
Actual Time 5:49 AM +07 5:59 PM +07
Civil Twilight 5:28 AM +07 6:20 PM +07
Nautical Twilight 5:04 AM +07 6:44 PM +07
Astronomical Twilight 4:39 AM +07 7:09 PM +07
Moon 7:35 AM +07 (9/18) 7:40 PM +07 (9/18)
Length of Visible Light 12h 51m
Length of Day
12h 09m
Waxing Crescent, 6% of the Moon is Illuminated
Sep 18
Waxing Crescent
Sep 23
First Quarter
Sep 30
Full
Oct 8
Last Quarter
Oct 15
New

Hourly Weather History & Observations

Time (+07) Temp. Heat Index Dew Point Humidity Pressure Visibility Wind Dir Wind Speed Gust Speed Precip Events Conditions
6:00 AM 77.0 °F - 71.6 °F 83% 29.80 in 6.2 mi Calm Calm - N/A   Scattered Clouds
6:30 AM 78.8 °F - 71.6 °F 78% 29.80 in 6.2 mi SSE 3.5 mph - N/A   Scattered Clouds
7:00 AM 78 °F - 74 °F 83% 29.81 in 6 mi West 4.5 mph - -   Partly Cloudy
7:00 AM 78.8 °F - 71.6 °F 78% 29.83 in 6.2 mi Calm Calm - N/A   Scattered Clouds
7:30 AM 80.6 °F 84.6 °F 71.6 °F 74% 29.83 in 6.2 mi South 2.3 mph - N/A   Scattered Clouds
8:00 AM 80.6 °F 83.9 °F 69.8 °F 70% 29.86 in 6.2 mi SSW 3.5 mph - N/A   Scattered Clouds
8:30 AM 82.4 °F 87.2 °F 71.6 °F 70% 29.86 in 6.2 mi SSW 8.1 mph - N/A   Scattered Clouds
9:00 AM 84.2 °F 89.6 °F 71.6 °F 66% 29.86 in 6.2 mi South 9.2 mph - N/A   Scattered Clouds
9:30 AM 84.2 °F 90.9 °F 73.4 °F 70% 29.86 in 6.2 mi South 5.8 mph - N/A   Scattered Clouds
10:00 AM 84.2 °F 90.9 °F 73.4 °F 70% 29.86 in 6.2 mi South 6.9 mph - N/A   Mostly Cloudy
10:30 AM 86.0 °F 93.4 °F 73.4 °F 66% 29.86 in 6.2 mi SSW 8.1 mph - N/A   Mostly Cloudy
11:00 AM 86.0 °F 93.4 °F 73.4 °F 66% 29.83 in 6.2 mi SW 8.1 mph - N/A   Mostly Cloudy
11:30 AM 86.0 °F 93.4 °F 73.4 °F 66% 29.83 in 6.2 mi Variable 3.5 mph - N/A   Mostly Cloudy
12:00 PM 82.4 °F 88.2 °F 73.4 °F 74% 29.80 in 1.9 mi SW 11.5 mph 25.3 mph N/A Rain Heavy Rain
12:30 PM 78.8 °F - 73.4 °F 83% 29.80 in 3.7 mi SW 15.0 mph - N/A Rain Light Rain
1:00 PM 78.8 °F - 73.4 °F 83% 29.80 in 5.6 mi SSW 11.5 mph - N/A Rain Light Rain
1:30 PM 78.8 °F - 73.4 °F 83% 29.77 in 6.2 mi SSW 8.1 mph - N/A   Mostly Cloudy
2:00 PM 80.6 °F 85.4 °F 73.4 °F 79% 29.77 in 6.2 mi South 3.5 mph - N/A   Mostly Cloudy
2:30 PM 82.4 °F 88.2 °F 73.4 °F 74% 29.74 in 6.2 mi South 4.6 mph - N/A   Mostly Cloudy
3:00 PM 86.0 °F 93.4 °F 73.4 °F 66% 29.71 in 6.2 mi WSW 6.9 mph - N/A   Mostly Cloudy
3:30 PM 87.8 °F 95.6 °F 73.4 °F 62% 29.71 in 6.2 mi WSW 8.1 mph - N/A   Mostly Cloudy
4:00 PM 89.6 °F 98.2 °F 73.4 °F 59% 29.71 in 6.2 mi West 8.1 mph - N/A   Mostly Cloudy
6:00 PM 82.4 °F 89.5 °F 75.2 °F 79% 29.74 in 6.2 mi SSE 8.1 mph - N/A   Mostly Cloudy
6:30 PM 82.4 °F 89.5 °F 75.2 °F 79% 29.74 in 5.6 mi South 5.8 mph - N/A   Mostly Cloudy
7:00 PM 82.4 °F 89.5 °F 75.2 °F 79% 29.77 in 5.6 mi South 5.8 mph - N/A   Mostly Cloudy
7:30 PM 82.4 °F 89.5 °F 75.2 °F 79% 29.77 in 6.2 mi SSW 6.9 mph - N/A   Scattered Clouds
8:00 PM 82.4 °F 89.5 °F 75.2 °F 79% 29.77 in 6.2 mi SSW 5.8 mph - N/A   Partly Cloudy
8:30 PM 82.4 °F 89.5 °F 75.2 °F 79% 29.77 in 6.2 mi South 3.5 mph - N/A   Scattered Clouds
9:00 PM 82.4 °F 89.5 °F 75.2 °F 79% 29.80 in 6.2 mi SSW 5.8 mph - N/A   Scattered Clouds
9:30 PM 80.6 °F 86.2 °F 75.2 °F 84% 29.80 in 6.2 mi SSW 3.5 mph - N/A   Scattered Clouds
10:00 PM 80.6 °F 86.2 °F 75.2 °F 84% 29.83 in 5.6 mi SSW 3.5 mph - N/A   Scattered Clouds
10:30 PM 80.6 °F 86.2 °F 75.2 °F 84% 29.83 in 5.6 mi SW 3.5 mph - N/A   Scattered Clouds
11:00 PM 80.6 °F 86.2 °F 75.2 °F 84% 29.83 in 5.6 mi SSW 3.5 mph - N/A   Scattered Clouds